Zurück zum Katalog

KUIPER-00615

AktivKommunikationLEO
NORAD 69774·PAYLOAD·🇺🇸 United States

Gestartet Jul 2, 2026 von Cape Canaveral Space Force Station

Loading…

Nächste Überflüge (nächste 24 Stunden)

TLE

AktuellSource: CelesTrak SupGP

Epoche: Sep 14, 2026, 17:32 UTC

1 69774C 26151M   26257.73062500  .00218090  00000+0  28612-1 0  2579
2 69774  51.9000 259.6424 0000922 118.3584 161.1527 14.79620069    13

Verfolge KUIPER-00615 in Echtzeit mit AllMySat

Download on the App Store